SCP
0 0 0 0 0 0 0 0 0 0 0 0 0 0 0 0 0 0 0 -0 -0 -0 -0 -0 -0 -0 -0 -0 -0 -0 0 0 -0 0 0 0 0 0 0 0 0 0 0 0
-0 -0 0 0 0 0 0 0 0 0 0 0 0 0 0 0 0 0 0 0 -0 -0 -0 -0 -0 -0 -0 -0 -0 -0 -0 -0 -0 -0 0 -0 0 0 0 0 0 0 0 0
-0 -0 -0 0 0 0 0 0 0 0 0 0 0 0 0 0 0 0 0 0 -0 -0 -0 -0 -0 -0 -0 -0 -0 -0 -0 -0 -0 -0 0 0 0 0 0 0 -0 0 0 -0
-0 -0 0 0 0 0 0 0 0 0 0 0 0 0 0 0 0 0 0 0 0 0 -0 -0 -0 -0 -0 -0 -0 -0 -0 -0 -0 -0 -0 0 0 0 0 0 -0 0 0 -0
0 -0 -0 0 1 0 0 0 0 0 0 0 0 0 0 0 0 1 0 0 0 0 -0 -0 -0 -0 -0 -0 -0 -0 -0 -0 -0 -0 -0 -0 0 0 0 0 0 -0 0 -0
0 -0 0 0 0 0 0 0 0 0 0 0 0 0 0 0 0 0 0 0 0 0 -0 -0 -0 -0 -0 -0 -0 -0 -0 -0 -0 -0 -0 -0 0 0 0 0 0 0 0 -0
0 -0 0 0 0 0 0 0 0 0 0 0 0 0 0 0 0 0 0 1 0 0 -0 -0 -0 -0 -0 -0 -0 -0 -0 -0 -0 -0 -0 -0 0 0 0 0 0 -0 -0 0
0 -0 -0 0 0 0 0 0 0 0 0 0 0 0 0 0 0 0 0 0 0 0 0 -0 -0 -0 -0 -0 -0 -0 -0 -0 -0 -0 -0 -0 0 0 0 0 0 -0 -0 0
0 0 -0 0 0 0 0 0 0 0 0 0 0 0 0 0 0 0 0 0 0 0 0 0 -0 0 -0 -0 -0 -0 -0 -0 -0 -0 -0 -0 0 0 0 0 0 0 0 0
0 0 0 0 0 0 0 0 0 0 0 0 0 0 0 0 0 0 0 0 0 0 0 -0 -0 -0 0 -0 -0 -0 -0 -0 -0 -0 -0 -0 0 0 0 0 0 0 0 0
0 0 0 0 0 0 0 0 0 0 0 0 0 0 0 0 0 0 0 0 0 0 0 -0 -0 -0 0 -0 -0 -0 -0 -0 -0 -0 0 -0 -0 0 0 0 0 0 0 0
0 0 0 0 0 0 0 0 0 0 0 0 0 0 0 0 0 1 1 1 1 1 0 -0 -0 -0 -0 -0 -0 -0 -0 -0 -0 -0 0 0 0 0 -0 -0 -0 -0 0 0
0 0 0 0 0 0 0 0 0 0 0 0 0 0 0 0 0 0 1 1 1 0 0 0 -0 -0 -0 -0 -0 -0 -0 -0 -0 -0 -0 0 0 0 0 0 -0 -0 -0 -0
0 0 0 0 0 0 0 0 0 0 0 0 0 0 0 0 0 1 2 1 1 0 0 0 0 -0 -0 -0 -0 -0 -0 -0 -0 -0 -0 0 -0 0 0 0 -0 -0 -0 -0
0 0 0 0 0 0 0 0 0 0 0 0 0 0 0 0 0 0 1 2 1 1 0 0 0 0 -0 -0 -0 -0 -0 -0 0 -0 -0 -0 0 0 0 -0 -0 -0 -0 -0
-0 0 0 0 0 0 0 0 0 0 0 0 0 0 0 0 0 0 0 1 3 2 1 0 0 0 0 0 -0 -0 -0 -0 -0 0 0 0 0 0 0 0 -0 -0 -0 -0
0 0 0 0 0 0 0 0 0 0 0 0 0 0 0 0 0 0 0 1 3 3 2 0 0 0 0 0 0 0 0 0 0 0 0 0 0 0 0 0 0 0 0 -0
0 -0 -0 0 0 0 0 0 0 0 0 0 0 0 0 0 0 0 0 1 4 4 2 3 0 0 1 0 1 0 0 0 0 0 0 0 0 0 0 0 0 0 0 0
0 0 -0 -0 0 0 0 0 0 0 0 0 0 0 0 0 0 0 0 1 1 2 2 2 0 1 2 1 1 1 1 0 0 0 0 0 0 0 0 0 0 0 0 0
0 0 0 -0 -0 0 0 0 0 0 0 0 0 0 0 0 0 0 0 0 0 0 1 1 1 1 1 0 0 1 1 0 0 0 0 0 0 0 0 0 0 0 0 0
-0 0 -0 -0 -0 0 0 0 0 0 0 0 0 0 0 0 0 0 0 0 0 0 0 0 0 0 0 0 0 0 1 0 0 1 0 0 0 0 0 0 0 0 0 0
-0 -0 -0 -0 -0 -0 0 0 0 0 0 0 0 0 0 0 0 0 0 0 -0 0 0 0 0 0 0 0 0 1 1 1 0 1 1 0 0 0 0 0 0 0 0 0
0 0 -0 -0 0 0 0 0 0 0 0 0 0 0 0 0 0 0 0 0 0 0 0 0 0 0 0 0 0 1 2 1 1 1 1 1 0 0 0 0 0 0 0 0
-0 0 0 0 0 -0 0 0 0 0 0 0 0 0 0 0 0 0 0 0 0 0 0 0 0 0 0 1 2 1 1 2 1 0 0 0 1 1 0 1 0 0 0 0
0 -0 -0 0 0 0 -0 0 0 0 0 0 0 0 0 0 0 0 0 0 0 0 0 0 0 0 0 0 1 2 3 3 1 1 1 1 1 1 1 1 1 1 1 0
0 -0 -0 -0 0 0 0 -0 -0 0 0 0 0 0 0 0 0 0 0 0 0 0 0 0 0 0 0 0 0 1 1 1 2 2 2 2 2 3 3 1 1 1 1 1
0 0 -0 0 -0 -0 -0 -0 -0 -0 -0 -0 -0 0 0 0 0 0 0 0 0 0 0 0 0 0 0 0 0 0 0 0 0 0 0 3 4 5 4 3 3 2 3 3
Wind_Speed_500mb
38 46 32 37 59 53 57 45 43 40 37 20 20 16 22 35 45 51 53 58 59 57 55 52 49 44 40 38 35 33 29 27 17 10 14 9 12 9 18 10 20 20 23 20
36 29 23 41 69 54 57 56 53 45 32 37 23 15 20 23 35 42 51 56 57 53 52 51 49 45 42 40 37 34 31 28 15 22 16 8 4 12 20 10 18 21 19 22
9 10 8 38 47 44 46 56 50 37 11 46 18 11 13 28 33 42 51 53 56 51 52 51 48 44 44 42 38 35 32 26 24 22 12 12 7 9 19 18 20 18 20 19
5 21 11 30 32 41 34 39 41 21 17 21 37 13 8 30 20 28 47 48 53 52 52 51 46 45 41 42 39 35 32 29 28 21 20 16 6 3 19 17 19 20 21 17
8 10 13 45 20 38 4 26 40 14 16 15 11 41 38 38 37 32 25 47 53 51 53 51 49 48 45 43 40 36 33 31 28 32 21 20 11 7 15 11 12 24 22 16
10 4 13 12 37 54 9 12 35 31 32 30 12 14 17 40 34 30 18 41 52 52 53 54 51 51 47 45 42 39 35 32 30 31 29 24 16 8 12 8 13 23 24 17
16 7 9 28 50 51 12 4 21 31 34 34 24 19 24 29 30 25 26 4 55 54 55 56 56 53 50 46 44 39 37 34 32 33 31 23 17 17 7 13 19 21 27 20
7 7 5 42 24 20 19 32 36 36 33 31 28 24 25 26 27 27 23 10 47 57 57 59 58 57 52 49 43 41 39 38 37 32 30 26 18 25 12 9 13 31 32 28
15 8 16 27 22 36 31 33 36 35 37 30 30 27 24 24 23 25 23 16 14 53 57 60 59 58 54 50 46 44 43 42 43 34 37 31 22 32 16 17 26 37 34 28
14 20 5 12 29 31 40 34 31 30 40 28 28 26 21 22 21 21 19 22 25 49 58 61 60 57 53 52 48 47 48 47 46 45 36 29 26 32 23 21 23 27 29 24
1 15 26 34 40 32 36 30 22 24 26 28 25 21 21 22 23 21 20 23 32 36 59 60 62 59 55 54 52 51 53 51 49 50 42 36 31 30 28 27 25 32 30 26
7 38 23 35 40 38 30 30 14 20 24 27 31 19 23 24 27 25 22 21 28 30 60 58 62 62 59 57 58 58 58 57 53 49 54 42 43 36 35 30 27 21 36 22
19 38 41 45 40 31 32 33 31 25 25 28 36 19 23 27 30 30 27 25 28 36 54 59 61 64 64 62 63 63 64 60 55 51 51 48 46 45 46 39 39 28 25 29
28 30 33 32 44 41 37 33 33 32 27 24 30 18 23 27 30 29 26 19 30 29 47 56 62 65 65 64 67 68 68 62 59 58 54 52 51 47 45 51 48 49 41 38
28 29 24 30 37 38 36 30 27 26 23 17 20 17 22 28 29 28 31 26 22 28 44 56 61 64 67 68 71 73 73 67 63 59 54 50 52 51 47 46 46 45 56 53
27 32 31 35 36 34 31 31 27 23 21 16 14 17 22 27 27 27 30 31 24 21 24 50 60 64 68 70 72 76 75 69 68 57 55 54 54 54 52 49 50 50 53 61
36 41 43 39 31 35 36 31 30 25 21 17 16 16 23 24 25 26 31 32 31 25 17 33 43 50 67 70 75 77 74 72 66 56 59 59 58 58 55 54 53 57 58 57
28 43 32 29 31 31 32 30 32 26 23 18 17 17 20 21 24 26 31 36 26 6 10 15 19 42 47 67 74 72 71 71 75 73 57 58 61 59 59 56 55 54 57 62
30 41 38 35 34 31 26 24 21 24 19 17 15 16 17 19 19 22 28 31 37 30 21 17 13 18 35 52 67 71 70 67 71 77 70 58 63 60 59 60 58 57 55 58
40 37 41 44 41 48 18 16 22 25 13 15 14 13 13 13 16 19 20 23 22 33 26 25 23 11 5 22 33 68 72 66 67 75 71 67 64 70 65 64 62 59 58 60
38 42 44 47 44 48 40 34 26 21 10 7 10 10 10 13 16 16 16 16 26 22 25 23 13 14 22 26 32 53 63 70 64 69 79 69 65 69 71 65 68 66 64 64
36 38 46 36 46 50 42 32 30 27 30 25 24 13 13 11 17 17 15 10 20 28 27 27 24 23 29 37 33 30 40 49 65 56 68 69 76 64 75 77 69 74 72 70
33 38 37 40 45 46 43 35 34 33 50 45 48 43 37 31 36 30 29 37 26 32 30 24 32 31 25 19 23 21 24 41 44 56 52 72 66 82 66 76 82 69 72 78
22 30 31 43 37 38 56 53 45 33 37 36 35 33 34 36 36 28 32 31 25 27 29 32 35 36 24 20 11 18 28 26 36 52 69 43 72 65 75 67 75 78 73 71
16 20 25 29 37 35 40 40 47 44 42 41 38 34 25 22 34 33 29 26 23 26 30 30 38 29 27 24 24 10 9 17 23 29 38 61 46 57 62 63 68 72 72 81
13 18 19 24 26 30 31 37 37 40 38 42 45 45 43 39 37 32 27 18 14 11 19 28 31 39 31 21 24 23 27 28 17 17 17 30 26 35 39 45 46 69 66 73
10 16 20 18 24 26 27 28 36 35 42 38 36 43 45 49 47 48 43 36 29 22 20 19 28 37 24 21 30 22 23 21 19 31 26 7 16 32 39 36 42 41 38 50
Wind_Direction_500mb
286 268 277 299 292 252 222 198 218 228 222 196 181 135 97 112 134 146 154 160 164 169 166 168 168 170 170 170 171 170 169 170 160 152 112 111 108 141 132 150 150 153 156 139
272 256 264 292 283 275 219 219 212 236 147 85 63 28 126 145 150 154 158 167 164 170 167 171 169 171 172 173 171 170 168 169 165 158 128 117 61 134 138 142 151 150 160 150
272 172 14 286 252 251 240 204 204 215 250 130 197 261 93 142 154 163 161 168 168 171 171 173 172 176 175 175 171 169 171 173 151 166 142 148 145 107 152 152 145 147 143 151
46 129 210 264 249 263 200 186 209 146 111 111 151 210 356 56 102 167 169 178 167 170 172 173 174 177 175 175 172 170 171 170 164 177 137 154 162 132 161 161 157 159 144 168
249 225 343 304 19 321 268 48 19 77 207 161 68 102 51 33 31 16 191 177 166 173 171 173 176 179 177 176 174 171 172 171 169 165 139 152 148 119 146 145 135 147 158 165
301 207 203 328 324 319 344 83 18 18 31 43 37 108 31 1 16 4 8 168 167 168 171 173 177 179 179 178 177 174 174 172 170 172 148 161 156 145 123 145 145 160 165 150
276 274 31 324 330 307 158 229 26 33 35 25 32 18 341 351 3 354 344 345 168 170 173 175 179 181 182 181 180 177 173 169 168 171 156 172 159 149 140 137 156 161 154 148
298 339 354 337 11 50 324 26 31 34 33 24 20 358 359 355 347 331 330 308 170 164 171 176 181 184 185 185 180 177 174 171 168 177 159 177 164 146 152 128 142 147 150 153
11 29 294 322 3 4 11 25 23 17 13 18 13 2 351 347 327 307 301 289 219 169 172 178 183 188 188 186 180 178 176 175 173 168 176 176 173 154 166 129 124 144 158 162
333 355 27 357 346 357 8 9 7 3 357 8 358 350 342 333 318 297 271 260 247 177 172 176 185 190 189 186 182 180 176 177 176 171 183 172 176 157 165 171 146 150 161 175
276 352 340 2 355 356 334 346 353 355 352 339 333 339 340 321 310 292 263 252 235 202 176 181 186 189 189 187 184 184 179 179 182 179 177 172 173 166 178 172 200 177 177 186
316 324 317 309 318 320 317 323 324 333 333 325 317 339 333 327 316 307 289 256 239 232 179 184 188 190 190 189 186 186 181 181 185 184 183 186 187 179 185 187 200 186 184 202
301 306 305 306 301 311 335 326 331 328 313 308 311 340 336 329 320 316 296 266 241 221 186 185 188 193 192 190 189 190 186 187 189 188 192 190 191 195 193 186 195 208 180 186
322 320 321 329 322 314 311 300 298 295 292 297 312 333 339 330 327 330 329 308 247 228 201 193 191 195 195 193 193 193 193 193 193 190 198 193 196 197 201 206 199 203 203 207
323 314 304 321 319 313 306 297 289 283 282 282 310 328 333 331 331 334 332 326 279 252 206 202 197 197 197 196 197 194 199 195 195 199 199 196 200 199 201 205 209 206 212 210
332 352 338 334 326 317 308 295 285 275 272 269 290 317 325 327 331 336 332 335 333 275 255 204 205 202 197 199 200 197 203 198 198 202 198 203 199 200 204 205 205 203 216 215
356 353 336 327 320 319 310 304 291 279 286 283 288 303 315 326 333 342 342 334 329 301 300 213 214 207 199 202 204 197 198 202 204 197 202 204 202 204 205 208 206 203 208 229
14 356 344 332 323 322 307 305 294 282 270 282 284 296 305 318 328 341 348 342 347 324 284 90 199 206 208 202 205 200 198 201 203 205 205 207 206 208 207 208 210 210 209 220
7 9 5 357 348 328 304 307 282 281 257 270 279 284 293 304 325 340 349 350 357 2 344 358 295 196 205 207 207 203 202 202 207 211 208 212 211 209 212 210 213 214 212 216
11 1 3 5 2 10 342 306 295 290 257 261 260 269 290 315 328 335 342 0 12 356 1 356 354 307 208 217 208 206 207 209 210 211 213 212 216 212 212 215 213 215 215 218
3 6 9 12 12 18 32 29 31 34 346 281 279 283 296 319 332 332 333 18 1 357 21 11 346 290 251 240 228 208 210 212 216 215 211 216 216 218 213 216 218 216 217 217
12 14 12 12 23 21 19 27 36 44 34 10 354 355 345 348 340 333 11 28 349 342 7 356 339 325 289 259 247 235 227 218 220 224 216 214 216 221 219 215 218 222 218 219
17 18 23 28 27 24 23 25 28 38 30 32 37 38 26 14 18 23 23 29 22 357 356 339 344 353 351 281 272 246 246 246 241 237 231 219 220 220 226 221 221 220 225 222
25 20 32 36 38 31 30 31 30 26 23 22 29 27 27 16 19 359 8 4 354 -0 0 338 338 348 345 4 346 251 254 266 259 255 249 248 223 222 226 230 228 226 221 230
26 34 32 39 40 38 34 37 33 35 36 30 20 12 348 349 356 325 346 343 351 356 344 341 334 330 342 329 332 318 295 270 295 272 255 246 256 224 223 233 233 233 231 229
36 50 46 43 45 38 41 37 41 33 38 35 27 23 19 12 359 347 331 325 316 322 328 321 351 345 313 313 307 304 296 305 309 302 256 245 247 217 227 238 243 232 234 232
45 46 49 34 35 34 45 42 43 37 38 44 38 27 23 21 20 13 1 343 319 297 284 295 338 353 335 305 316 314 277 286 296 294 283 221 224 219 222 229 231 225 219 222
Wind_Speed_850mb
38 46 32 37 59 53 57 45 43 40 37 20 20 16 22 35 45 51 53 58 59 57 55 52 49 44 40 38 35 33 29 27 17 10 14 9 12 9 18 10 20 20 23 20
36 29 23 41 69 54 57 56 53 45 32 37 23 15 20 23 35 42 51 56 57 53 52 51 49 45 42 40 37 34 31 28 15 22 16 8 4 12 20 10 18 21 19 22
9 10 8 38 47 44 46 56 50 37 11 46 18 11 13 28 33 42 51 53 56 51 52 51 48 44 44 42 38 35 32 26 24 22 12 12 7 9 19 18 20 18 20 19
5 21 11 30 32 41 34 39 41 21 17 21 37 13 8 30 20 28 47 48 53 52 52 51 46 45 41 42 39 35 32 29 28 21 20 16 6 3 19 17 19 20 21 17
8 10 13 45 20 38 4 26 40 14 16 15 11 41 38 38 37 32 25 47 53 51 53 51 49 48 45 43 40 36 33 31 28 32 21 20 11 7 15 11 12 24 22 16
10 4 13 12 37 54 9 12 35 31 32 30 12 14 17 40 34 30 18 41 52 52 53 54 51 51 47 45 42 39 35 32 30 31 29 24 16 8 12 8 13 23 24 17
16 7 9 28 50 51 12 4 21 31 34 34 24 19 24 29 30 25 26 4 55 54 55 56 56 53 50 46 44 39 37 34 32 33 31 23 17 17 7 13 19 21 27 20
7 7 5 42 24 20 19 32 36 36 33 31 28 24 25 26 27 27 23 10 47 57 57 59 58 57 52 49 43 41 39 38 37 32 30 26 18 25 12 9 13 31 32 28
15 8 16 27 22 36 31 33 36 35 37 30 30 27 24 24 23 25 23 16 14 53 57 60 59 58 54 50 46 44 43 42 43 34 37 31 22 32 16 17 26 37 34 28
14 20 5 12 29 31 40 34 31 30 40 28 28 26 21 22 21 21 19 22 25 49 58 61 60 57 53 52 48 47 48 47 46 45 36 29 26 32 23 21 23 27 29 24
1 15 26 34 40 32 36 30 22 24 26 28 25 21 21 22 23 21 20 23 32 36 59 60 62 59 55 54 52 51 53 51 49 50 42 36 31 30 28 27 25 32 30 26
7 38 23 35 40 38 30 30 14 20 24 27 31 19 23 24 27 25 22 21 28 30 60 58 62 62 59 57 58 58 58 57 53 49 54 42 43 36 35 30 27 21 36 22
19 38 41 45 40 31 32 33 31 25 25 28 36 19 23 27 30 30 27 25 28 36 54 59 61 64 64 62 63 63 64 60 55 51 51 48 46 45 46 39 39 28 25 29
28 30 33 32 44 41 37 33 33 32 27 24 30 18 23 27 30 29 26 19 30 29 47 56 62 65 65 64 67 68 68 62 59 58 54 52 51 47 45 51 48 49 41 38
28 29 24 30 37 38 36 30 27 26 23 17 20 17 22 28 29 28 31 26 22 28 44 56 61 64 67 68 71 73 73 67 63 59 54 50 52 51 47 46 46 45 56 53
27 32 31 35 36 34 31 31 27 23 21 16 14 17 22 27 27 27 30 31 24 21 24 50 60 64 68 70 72 76 75 69 68 57 55 54 54 54 52 49 50 50 53 61
36 41 43 39 31 35 36 31 30 25 21 17 16 16 23 24 25 26 31 32 31 25 17 33 43 50 67 70 75 77 74 72 66 56 59 59 58 58 55 54 53 57 58 57
28 43 32 29 31 31 32 30 32 26 23 18 17 17 20 21 24 26 31 36 26 6 10 15 19 42 47 67 74 72 71 71 75 73 57 58 61 59 59 56 55 54 57 62
30 41 38 35 34 31 26 24 21 24 19 17 15 16 17 19 19 22 28 31 37 30 21 17 13 18 35 52 67 71 70 67 71 77 70 58 63 60 59 60 58 57 55 58
40 37 41 44 41 48 18 16 22 25 13 15 14 13 13 13 16 19 20 23 22 33 26 25 23 11 5 22 33 68 72 66 67 75 71 67 64 70 65 64 62 59 58 60
38 42 44 47 44 48 40 34 26 21 10 7 10 10 10 13 16 16 16 16 26 22 25 23 13 14 22 26 32 53 63 70 64 69 79 69 65 69 71 65 68 66 64 64
36 38 46 36 46 50 42 32 30 27 30 25 24 13 13 11 17 17 15 10 20 28 27 27 24 23 29 37 33 30 40 49 65 56 68 69 76 64 75 77 69 74 72 70
33 38 37 40 45 46 43 35 34 33 50 45 48 43 37 31 36 30 29 37 26 32 30 24 32 31 25 19 23 21 24 41 44 56 52 72 66 82 66 76 82 69 72 78
22 30 31 43 37 38 56 53 45 33 37 36 35 33 34 36 36 28 32 31 25 27 29 32 35 36 24 20 11 18 28 26 36 52 69 43 72 65 75 67 75 78 73 71
16 20 25 29 37 35 40 40 47 44 42 41 38 34 25 22 34 33 29 26 23 26 30 30 38 29 27 24 24 10 9 17 23 29 38 61 46 57 62 63 68 72 72 81
13 18 19 24 26 30 31 37 37 40 38 42 45 45 43 39 37 32 27 18 14 11 19 28 31 39 31 21 24 23 27 28 17 17 17 30 26 35 39 45 46 69 66 73
10 16 20 18 24 26 27 28 36 35 42 38 36 43 45 49 47 48 43 36 29 22 20 19 28 37 24 21 30 22 23 21 19 31 26 7 16 32 39 36 42 41 38 50
Wind_Direction_850mb
286 268 277 299 292 252 222 198 218 228 222 196 181 135 97 112 134 146 154 160 164 169 166 168 168 170 170 170 171 170 169 170 160 152 112 111 108 141 132 150 150 153 156 139
272 256 264 292 283 275 219 219 212 236 147 85 63 28 126 145 150 154 158 167 164 170 167 171 169 171 172 173 171 170 168 169 165 158 128 117 61 134 138 142 151 150 160 150
272 172 14 286 252 251 240 204 204 215 250 130 197 261 93 142 154 163 161 168 168 171 171 173 172 176 175 175 171 169 171 173 151 166 142 148 145 107 152 152 145 147 143 151
46 129 210 264 249 263 200 186 209 146 111 111 151 210 356 56 102 167 169 178 167 170 172 173 174 177 175 175 172 170 171 170 164 177 137 154 162 132 161 161 157 159 144 168
249 225 343 304 19 321 268 48 19 77 207 161 68 102 51 33 31 16 191 177 166 173 171 173 176 179 177 176 174 171 172 171 169 165 139 152 148 119 146 145 135 147 158 165
301 207 203 328 324 319 344 83 18 18 31 43 37 108 31 1 16 4 8 168 167 168 171 173 177 179 179 178 177 174 174 172 170 172 148 161 156 145 123 145 145 160 165 150
276 274 31 324 330 307 158 229 26 33 35 25 32 18 341 351 3 354 344 345 168 170 173 175 179 181 182 181 180 177 173 169 168 171 156 172 159 149 140 137 156 161 154 148
298 339 354 337 11 50 324 26 31 34 33 24 20 358 359 355 347 331 330 308 170 164 171 176 181 184 185 185 180 177 174 171 168 177 159 177 164 146 152 128 142 147 150 153
11 29 294 322 3 4 11 25 23 17 13 18 13 2 351 347 327 307 301 289 219 169 172 178 183 188 188 186 180 178 176 175 173 168 176 176 173 154 166 129 124 144 158 162
333 355 27 357 346 357 8 9 7 3 357 8 358 350 342 333 318 297 271 260 247 177 172 176 185 190 189 186 182 180 176 177 176 171 183 172 176 157 165 171 146 150 161 175
276 352 340 2 355 356 334 346 353 355 352 339 333 339 340 321 310 292 263 252 235 202 176 181 186 189 189 187 184 184 179 179 182 179 177 172 173 166 178 172 200 177 177 186
316 324 317 309 318 320 317 323 324 333 333 325 317 339 333 327 316 307 289 256 239 232 179 184 188 190 190 189 186 186 181 181 185 184 183 186 187 179 185 187 200 186 184 202
301 306 305 306 301 311 335 326 331 328 313 308 311 340 336 329 320 316 296 266 241 221 186 185 188 193 192 190 189 190 186 187 189 188 192 190 191 195 193 186 195 208 180 186
322 320 321 329 322 314 311 300 298 295 292 297 312 333 339 330 327 330 329 308 247 228 201 193 191 195 195 193 193 193 193 193 193 190 198 193 196 197 201 206 199 203 203 207
323 314 304 321 319 313 306 297 289 283 282 282 310 328 333 331 331 334 332 326 279 252 206 202 197 197 197 196 197 194 199 195 195 199 199 196 200 199 201 205 209 206 212 210
332 352 338 334 326 317 308 295 285 275 272 269 290 317 325 327 331 336 332 335 333 275 255 204 205 202 197 199 200 197 203 198 198 202 198 203 199 200 204 205 205 203 216 215
356 353 336 327 320 319 310 304 291 279 286 283 288 303 315 326 333 342 342 334 329 301 300 213 214 207 199 202 204 197 198 202 204 197 202 204 202 204 205 208 206 203 208 229
14 356 344 332 323 322 307 305 294 282 270 282 284 296 305 318 328 341 348 342 347 324 284 90 199 206 208 202 205 200 198 201 203 205 205 207 206 208 207 208 210 210 209 220
7 9 5 357 348 328 304 307 282 281 257 270 279 284 293 304 325 340 349 350 357 2 344 358 295 196 205 207 207 203 202 202 207 211 208 212 211 209 212 210 213 214 212 216
11 1 3 5 2 10 342 306 295 290 257 261 260 269 290 315 328 335 342 0 12 356 1 356 354 307 208 217 208 206 207 209 210 211 213 212 216 212 212 215 213 215 215 218
3 6 9 12 12 18 32 29 31 34 346 281 279 283 296 319 332 332 333 18 1 357 21 11 346 290 251 240 228 208 210 212 216 215 211 216 216 218 213 216 218 216 217 217
12 14 12 12 23 21 19 27 36 44 34 10 354 355 345 348 340 333 11 28 349 342 7 356 339 325 289 259 247 235 227 218 220 224 216 214 216 221 219 215 218 222 218 219
17 18 23 28 27 24 23 25 28 38 30 32 37 38 26 14 18 23 23 29 22 357 356 339 344 353 351 281 272 246 246 246 241 237 231 219 220 220 226 221 221 220 225 222
25 20 32 36 38 31 30 31 30 26 23 22 29 27 27 16 19 359 8 4 354 -0 0 338 338 348 345 4 346 251 254 266 259 255 249 248 223 222 226 230 228 226 221 230
26 34 32 39 40 38 34 37 33 35 36 30 20 12 348 349 356 325 346 343 351 356 344 341 334 330 342 329 332 318 295 270 295 272 255 246 256 224 223 233 233 233 231 229
36 50 46 43 45 38 41 37 41 33 38 35 27 23 19 12 359 347 331 325 316 322 328 321 351 345 313 313 307 304 296 305 309 302 256 245 247 217 227 238 243 232 234 232
45 46 49 34 35 34 45 42 43 37 38 44 38 27 23 21 20 13 1 343 319 297 284 295 338 353 335 305 316 314 277 286 296 294 283 221 224 219 222 229 231 225 219 222